Погода Баяндай

Погода Баяндай : погода сейчас, прогноз погоды и архив. Всё, что Вы хотите узнать о погоде Баяндай!

Хотите узнать прогноз погоды Баяндай? Тогда Вам сюда: Погода Баяндай

Поиск расширенной информации на нашем сайте:

Другие новости

Новости СМИ2

Главная страница сайта

Новости сайта

03.07.2017

Напоминаем, что на нашем специализированном сайте Метеоцентр.Азия вы можете получить высокодетализированные автоматические прогнозы погоды по пунктам России, СНГ и мира в авиационном формате (включающие направление и скорость ветра, видимость, явления погоды, количество и форму облачности, нижнюю и верхнюю границу облачности).


Погода Баяндай - сегодня

Время (UTC), дата Ветер
(°,м/с) 
Видим.   Явления Облачность Т
(°С)
Тd
(°С)
f(%) Тe
(°С)
Pmin
(гПа)
dP
(гПа)
Po
(мм)
O2
(г/м3)
Тmin Tmax R s Состояние
почвы
21 14.08.18 240 (ЮЗ) 20000 м  в посл. час ливневой дождь  10/10 600 м кучево-дожд. 
[Cb calv]
+12.4 +11.7 95 +17  1011.3  2.2  693  265           
00 15.08.18 260 (З) 10 км  в посл. час ливневой дождь  10/10 600 м кучево-дожд. 
[Cb cap]
+11.4 +10.3 93 +15  1014.3  2.5  695  267  +11.2      влажная 
03 15.08.18 260 (З) 20000 м    9/9 600 м кучево-дожд., верхняя 
[Cb calv|Ci fib]
+13.7 +10 78 +17  1014.7  696  265           
06 15.08.18 250 (З) 20000 м    9/8 600 м кучево-дожд., верхняя 
[Cb calv|Ci ing]
+15.9 +9.6 66 +19  1014.6  0.5  696  263           
09 15.08.18 230 (ЮЗ) 20000 м    9/4 1000 м верхняя 
[Cu hum|Ci ing]
+16.7 +10.4 66 +21  1014.5  0.2  696  262           
12 15.08.18 340 (С) 20000 м    8/8 600 м кучево-дожд. 
[Cb calv]
+15.3 +8.7 65 +17  1015.8  0.8  697  264    +18.1       
15 15.08.18 330 (СЗ) 5-10  20000 м    ясно 
+11.7 +6.2 69 +11  1017.7  0.6  697  268           
18 15.08.18 290 (З) 20000 м    10/0 средняя 
[Ac und]
+9.7 +6.1 78 +11  1018.8  0.4  698  270           
21 15.08.18 230 (ЮЗ) н/о  слаб. ливневой дождь  10/10 300 м кучево-дожд. 
[Cb cap]
+11.6 +9.9 89 +14  1014.4  -0.6  723  278           
00 16.08.18 190 (Ю) 20000 м    1/0 верхняя 
[Ci fib]
+9.7 +6.7 82 +10  1018  -0.2  697  270  +6.6        влажная 
03 16.08.18 260 (З) 20000 м    9/3 1000 м верхняя 
[Cu hum|Ci fib]
+16.3 +5.1 47 +17  1014.8  -1  696  264           
06 16.08.18 250 (З) 20000 м    10/10 1000 м 
[Cu med, cong]
+17.9 +5.1 43 +18  1013  -1.2  695  262           
09 16.08.18 270 (З) 20000 м    10/10 1000 м кучево-дожд. 
[Cb calv]
+18.7 +6.5 45 +20  1012.2  -0.5  695  261           
12 16.08.18 270 (З) 1{15}  20000 м  {ливн. осадки}  9/4 600 м кучево-дожд., верхняя 
[Cb calv|Cc]
+12.1 +9.9 86 +16  1014.5  0.4  695  266    +19.3  0.9     
15 16.08.18 260 (З) 20000 м    9/3 1000 м верхняя 
[Sc diur, vesp|Ci fib]
+11 +9.2 89 +14  1014.5  -0.4  695  267           
18 16.08.18 240 (ЮЗ) 20000 м    10/0 верхняя 
[Ci fib]
+10.4 +9 91 +12  1014  -0.7  695  268           
21 16.08.18 250 (З) 20000 м  {ливн. осадки}  6/3 600 м кучево-дожд., верхняя 
[Cb calv|Cc]
+9 +8.2 95 +9  1013.4  -0.9  694  269           
00 17.08.18 240 (ЮЗ) 20000 м  {ливн. осадки}  10/10 1000 м 
[Sc]
+9.5 +8.5 93 +11  1012.7  -0.5  694  268  +7.7    0.0    влажная 
03 17.08.18 270 (З) 20000 м    9/0 верхняя 
[Cs]
+17.9 +8.2 53 +18  1009  -1  693  260           
06 17.08.18 270 (З) 4{10}  20000 м    9/5 600 м кучево-дожд., верхняя 
[Cb calv|Cs]
+20.3 +8.7 47 +21  1007  -1.1  692  258           
09 17.08.18 290 (З) 20000 м    10/3 1000 м верхняя 
[Cu hum|Cs]
+20.3 +8.8 48 +21  1006.6  -0.4  692  258           
12 17.08.18 310 (СЗ) 20000 м    10/10 1000 м 
[Sc diur, vesp]
+17.6 +9.3 58 +20  1007.2  -0.2  692  260    +20.6       
15 17.08.18 310 (СЗ) 20000 м    3/3 1000 м 
[Sc diur, vesp]
+12.9 +10.1 83 +17  1008.6  692  264           
18 17.08.18 290 (З) 20000 м    ясно 
+11.4 +9.6 89 +15  1008.1  -0.9  691  265           
21 17.08.18 280 (З) 20000 м    4/0 верхняя 
[Cs]
+10.7 +9.1 90 +14  1007.6  -0.7  690  266           
Время (UTC), дата Ветер
(°,м/с) 
Видим.   Явления Облачность Т
(°С)
Тd
(°С)
f(%) Тe
(°С)
Pmin
(гПа)
dP
(гПа)
Po
(мм)
O2
(г/м3)
Тmin Tmax R s Состояние
почвы

Для получения пояснительной информации подведите курсор к названию столбца.

ПОГОДА Баяндай - архив

Всё, что Вы хотите узнать о погоде Баяндай - удобно и подробно!

Выберите нужную дату (начиная с 1 января 2015* года) и нажмите кнопку "Найти".
Будут отображены архивные сводки погоды по пункту Баяндай, начиная с указанной даты.


Отображать данные в формате CSV (для использования в таблицах Excel)


Внимание! Наш архив погоды предназначен исключительно для личного некоммерческого использования в познавательных целях. Если Вам необходимы официальные справки о состоянии погоды (для производственных, юридических, коммерческих и т.п. целей), обращайтесь в органы Росгидромета.

*Примечание: данная дата относится к архиву по метеостанциям СССР (Россия, СНГ, Балтия).
Архив по метеостанциям Зарубежной Европы и Азии (кроме Китая) хранится 10 дней, по другим регионам земного шара (Китай, Африка, Америка, Австралия, Океания) - 1 день.

Баяндай - район местоположения метеостанции


Название, широта, долгота, высота метеостанции:
Баяндай 53.1°ш. 105.5°д. 762 м над ур. моря [Российская Федерация]

Дополнительная информация

В oтличие oт бoльшинства пoгoдных сайтoв мы публикуем пoдрoбную метеoинфoрмацию в детальнoм прoфессиoнальнoм фoрмате.

Характеристики температуры и влажнoсти вoздуха измеряются на высoте 2 м в тени вдали oт зданий и деревьев.
Скoрoсть ветра измеряется на высoте 10 м (на урoвне рoста челoвека скoрoсть ветра ниже в 1.5-2 раза). Если метеoстанция нахoдится в гoрoде или в лесу, тo скoрoсть ветра занижена на 2-4 м/с пo сравнению с oткрытым местoм. Скoрoсть ветра над акватoриями крупных рек и oзёр, а также на вершинах хoлмoв на 2-5 м/с выше, чем в oбычных услoвиях.
Атмoсфернoе давление в разных тoчках местнoсти мoжет значительнo oтличаться oт давления на метеoстанции, в зависимoсти oт услoвий рельефа (при пoдъёме на 10 м давление пoнижается примернo на 1 мм рт.ст.).